User: anonymous   Login
Location: Gravenhurst
(44.9196°N, 79.3742°W)
Time: 03:11:40
(UTC-05:00)
Language:

N. Korean satellite - Orbit

View from above orbital plane
View from above orbital plane
View from above satellite
View from above satellite

Ground track
Ground track

The orbit data is extracted from the following two-line orbital elements,

1 39026U 12072A   19321.72848605 +.00001260 +00000-0 +47745-4 0  9998
2 39026 097.2158 320.0212 0035984 281.4208 078.2991 15.28174803384750
Epoch (UTC): 17 November 2019 17:29:01
Eccentricity: 0.0035984
inclination: 97.2158°
perigee height: 456 km
apogee height: 506 km
right ascension of ascending node: 320.0212°
argument of perigee: 281.4208°
revolutions per day: 15.28174803
mean anomaly at epoch: 78.2991°
orbit number at epoch: 38475

The dashed part of the orbit path shows where the satellite is in the earth's shadow,  

DLR